Bewolking Meer informatie Parkstad Weather Satellite


Neerslagradar Meer informatie Parkstad Rain Snow Radar


Onweersbuien Meer informatie Parkstad Lighntning


24/7 Weercamera Meer informatie Parkstad Weathercam


Natuurbrandrisico
CBI








Select another period ( hide this area )

Eenheden Periode Custom range Directly to
Metrisch Engels Beide
Dagelijkse Wekelijkse Maandelijkse Jaarlijkse
use both date-selectors for a custom range
previous Dag
With this date
Dagelijkse Samenvatting Zaterdag 29 januari 2022
Tijd Temp. ( °C ) Dew pt. ( °C ) Wind ( km/h ) van Windvlaag ( km/h ) Luchtdruk ( hPa ) Humid.( % ) Rainrate ( cm ) Zonneschijn ( W/m2 )
Hoog5,9 5,8 35,0 WZW ( 1704/2387 ) 35,0 1031,8 100 0,25 0
Gemiddeld5,4 4,7 24,9 WZW #68/96 28,5 1029,1 95 0,50 NAN #0/96
Laag4,8 3,8 16,0   21,0 1027,1 91 -  
Dagelijkse Tabular details for Zaterdag 29 januari 2022
Tijd Temp. ( °C ) Dew pt. ( °C ) Wind ( km/h ) van Windvlaag ( km/h ) Luchtdruk ( hPa ) Humid.( % ) Rainrate ( cm ) Zonneschijn ( W/m2 )
00:04 4,8 3,8 26,0 ZW 26,0 1031,8 93 - -
00:09 4,8 3,8 21,0 ZW 26,0 1031,8 93 - -
00:14 4,8 3,8 23,0 ZW 27,0 1031,8 93 - -
00:19 4,9 3,9 18,0 WZW 21,0 1031,5 93 - -
00:24 4,9 3,9 27,0 ZW 27,0 1031,5 93 - -
00:29 4,9 3,9 20,0 WZW 26,0 1031,5 93 - -
00:34 5,1 4,1 21,0 WZW 26,0 1031,5 93 - -
00:39 5,1 4,1 16,0 WZW 26,0 1031,5 93 - -
00:44 5,1 3,9 29,0 ZW 29,0 1031,5 92 - -
00:49 5,1 3,9 27,0 WZW 29,0 1031,5 92 - -
00:54 5,1 3,9 27,0 ZW 27,0 1031,5 92 - -
00:59 5,1 3,9 21,0 ZW 29,0 1031,5 92 - -
01:04 5,2 4,0 26,0 WZW 31,0 1031,2 92 - -
01:09 5,2 4,0 26,0 ZW 31,0 1031,2 92 - -
01:14 5,2 4,0 27,0 ZW 29,0 1031,2 92 - -
01:19 5,3 4,1 21,0 WZW 31,0 1031,2 92 - -
01:24 5,3 4,1 23,0 WZW 23,0 1031,2 92 - -
01:29 5,3 4,1 27,0 WZW 29,0 1031,2 92 - -
01:34 5,3 4,1 26,0 WZW 27,0 1030,5 92 - -
01:39 5,3 4,1 27,0 ZW 29,0 1030,5 92 - -
01:44 5,3 4,1 26,0 WZW 26,0 1030,5 92 - -
01:49 5,3 4,1 32,0 ZW 32,0 1030,5 92 - -
01:54 5,3 4,1 32,0 WZW 32,0 1030,5 92 - -
01:59 5,3 4,1 31,0 WZW 31,0 1030,5 92 - -
02:04 5,4 4,0 24,0 ZW 32,0 1030,1 91 - -
02:09 5,4 4,0 21,0 WZW 23,0 1030,1 91 - -
02:14 5,4 4,0 24,0 WZW 29,0 1030,1 91 - -
02:19 5,4 4,0 23,0 WZW 24,0 1030,1 91 - -
02:24 5,4 4,0 20,0 WZW 26,0 1030,1 91 - -
02:29 5,4 4,0 24,0 ZW 26,0 1030,1 91 - -
02:34 5,4 4,0 20,0 WZW 26,0 1030,1 91 - -
02:39 5,4 4,0 18,0 ZW 26,0 1030,1 91 - -
02:44 5,4 4,0 24,0 WZW 26,0 1030,1 91 - -
02:49 5,4 4,0 23,0 WZW 23,0 1029,8 91 - -
02:54 5,4 4,0 26,0 ZW 31,0 1029,8 91 - -
02:59 5,5 4,1 23,0 WZW 31,0 1029,8 91 - -
03:04 5,5 4,1 24,0 ZW 31,0 1029,5 91 - -
03:09 5,5 4,1 27,0 WZW 31,0 1029,5 91 - -
03:14 5,6 4,2 20,0 ZW 31,0 1029,5 91 - -
03:19 5,5 4,1 24,0 ZW 31,0 1029,1 91 - -
03:24 5,5 4,3 29,0 WZW 29,0 1029,1 92 - -
03:29 5,5 4,3 18,0 WZW 29,0 1029,1 92 - -
03:34 5,4 4,4 21,0 WZW 29,0 1029,1 93 - -
03:39 5,4 4,4 16,0 WZW 29,0 1029,1 93 - -
03:44 5,3 4,4 27,0 WZW 29,0 1029,1 94 - -
03:49 5,3 4,4 29,0 WZW 29,0 1029,1 94 - -
03:54 5,3 4,6 21,0 ZW 27,0 1029,1 95 - -
03:59 5,3 4,6 26,0 WZW 29,0 1029,1 95 - -
04:04 5,2 4,5 23,0 ZW 23,0 1029,1 95 - -
04:09 5,2 4,6 24,0 ZW 24,0 1029,1 96 - -
04:14 5,2 4,6 23,0 WZW 31,0 1029,1 96 - -
04:19 5,2 4,6 23,0 ZW 23,0 1028,8 96 - -
04:24 5,1 4,7 31,0 WZW 31,0 1028,8 97 - -
04:29 5,1 4,7 21,0 ZW 27,0 1028,8 97 - -
04:34 5,1 4,7 24,0 ZW 29,0 1028,5 97 - -
04:39 5,2 4,8 31,0 WZW 31,0 1028,5 97 - -
04:44 5,2 4,8 21,0 ZW 24,0 1028,5 97 - -
04:49 5,2 4,9 20,0 WZW 23,0 1028,5 98 - -
04:54 5,2 4,9 18,0 WZW 26,0 1028,5 98 - -
04:59 5,2 4,9 21,0 WZW 26,0 1028,5 98 - -
05:04 5,3 5,0 27,0 WZW 27,0 1028,1 98 - -
05:09 5,3 5,0 20,0 WZW 26,0 1028,1 98 - -
05:14 5,3 5,0 23,0 WZW 27,0 1028,1 98 - -
05:19 5,3 5,0 24,0 WZW 31,0 1027,8 98 - -
05:24 5,3 5,2 26,0 WZW 31,0 1027,8 99 - -
05:29 5,4 5,3 26,0 WZW 26,0 1027,8 99 - -
05:34 5,4 5,3 31,0 WZW 31,0 1027,8 99 - -
05:39 5,5 5,4 32,0 WZW 32,0 1027,8 99 - -
05:44 5,5 5,4 24,0 WZW 32,0 1027,8 99 - -
05:49 5,5 5,4 26,0 WZW 26,0 1027,8 99 - -
05:54 5,5 5,4 27,0 WZW 31,0 1027,8 99 - -
05:59 5,6 5,5 26,0 WZW 26,0 1027,8 99 - -
06:04 5,6 5,5 27,0 WZW 27,0 1027,4 99 - -
06:09 5,6 5,5 24,0 WZW 27,0 1027,4 99 - -
06:14 5,6 5,5 27,0 ZW 27,0 1027,8 99 - -
06:19 5,6 5,5 27,0 WZW 29,0 1027,8 99 0,25 -
06:24 5,6 5,5 27,0 WZW 29,0 1027,8 99 0,25 -
06:29 5,7 5,6 27,0 WZW 29,0 1027,8 99 0,25 -
06:34 5,7 5,7 26,0 WZW 32,0 1027,4 100 0,25 -
06:39 5,7 5,7 35,0 WZW 35,0 1027,4 100 0,25 -
06:44 5,7 5,7 21,0 WZW 31,0 1027,4 100 0,25 -
06:49 5,7 5,7 27,0 WZW 35,0 1027,4 100 0,25 -
06:54 5,7 5,6 27,0 WZW 27,0 1027,4 99 0,25 -
06:59 5,7 5,6 26,0 WZW 34,0 1027,4 99 0,25 -
07:04 5,8 5,7 27,0 WZW 34,0 1027,4 99 0,25 -
07:09 5,8 5,7 27,0 WZW 31,0 1027,4 99 0,25 -
07:14 5,8 5,7 34,0 WZW 34,0 1027,4 99 0,25 -
07:19 5,8 5,7 26,0 ZW 29,0 1027,4 99 0,25 -
07:24 5,8 5,7 29,0 WZW 29,0 1027,4 99 - -
07:29 5,8 5,7 32,0 WZW 32,0 1027,4 99 - -
07:34 5,8 5,7 23,0 WZW 32,0 1027,4 99 - -
07:39 5,8 5,7 29,0 WZW 29,0 1027,4 99 - -
07:44 5,8 5,7 27,0 WZW 29,0 1027,4 99 - -
07:49 5,9 5,8 21,0 WZW 27,0 1027,1 99 - -
07:54 5,9 5,8 27,0 ZW 29,0 1027,1 99 - -
07:59 5,9 5,8 20,0 WZW 27,0 1027,4 99 - -
Dagelijkse Samenvatting Zaterdag 29 januari 2022
Tijd Temp. ( °C ) Dew pt. ( °C ) Wind ( km/h ) van Windvlaag ( km/h ) Luchtdruk ( hPa ) Humid.( % ) Rainrate ( cm ) Zonneschijn ( W/m2 )
Hoog5,9 5,8 35,0 WZW ( 1704/2387 ) 35,0 1031,8 100 0,25 0
Gemiddeld5,4 4,7 24,9 WZW #68/96 28,5 1029,1 95 0,50 NAN #0/96
Laag4,8 3,8 16,0   21,0 1027,1 91 -  
Dagelijkse Tabular details for Zaterdag 29 januari 2022
Tijd Temp. ( °C ) Dew pt. ( °C ) Wind ( km/h ) van Windvlaag ( km/h ) Luchtdruk ( hPa ) Humid.( % ) Rainrate ( cm ) Zonneschijn ( W/m2 )
00:04 4,8 3,8 26,0 ZW 26,0 1031,8 93 - -
00:09 4,8 3,8 21,0 ZW 26,0 1031,8 93 - -
00:14 4,8 3,8 23,0 ZW 27,0 1031,8 93 - -
00:19 4,9 3,9 18,0 WZW 21,0 1031,5 93 - -
00:24 4,9 3,9 27,0 ZW 27,0 1031,5 93 - -
00:29 4,9 3,9 20,0 WZW 26,0 1031,5 93 - -
00:34 5,1 4,1 21,0 WZW 26,0 1031,5 93 - -
00:39 5,1 4,1 16,0 WZW 26,0 1031,5 93 - -
00:44 5,1 3,9 29,0 ZW 29,0 1031,5 92 - -
00:49 5,1 3,9 27,0 WZW 29,0 1031,5 92 - -
00:54 5,1 3,9 27,0 ZW 27,0 1031,5 92 - -
00:59 5,1 3,9 21,0 ZW 29,0 1031,5 92 - -
01:04 5,2 4,0 26,0 WZW 31,0 1031,2 92 - -
01:09 5,2 4,0 26,0 ZW 31,0 1031,2 92 - -
01:14 5,2 4,0 27,0 ZW 29,0 1031,2 92 - -
01:19 5,3 4,1 21,0 WZW 31,0 1031,2 92 - -
01:24 5,3 4,1 23,0 WZW 23,0 1031,2 92 - -
01:29 5,3 4,1 27,0 WZW 29,0 1031,2 92 - -
01:34 5,3 4,1 26,0 WZW 27,0 1030,5 92 - -
01:39 5,3 4,1 27,0 ZW 29,0 1030,5 92 - -
01:44 5,3 4,1 26,0 WZW 26,0 1030,5 92 - -
01:49 5,3 4,1 32,0 ZW 32,0 1030,5 92 - -
01:54 5,3 4,1 32,0 WZW 32,0 1030,5 92 - -
01:59 5,3 4,1 31,0 WZW 31,0 1030,5 92 - -
02:04 5,4 4,0 24,0 ZW 32,0 1030,1 91 - -
02:09 5,4 4,0 21,0 WZW 23,0 1030,1 91 - -
02:14 5,4 4,0 24,0 WZW 29,0 1030,1 91 - -
02:19 5,4 4,0 23,0 WZW 24,0 1030,1 91 - -
02:24 5,4 4,0 20,0 WZW 26,0 1030,1 91 - -
02:29 5,4 4,0 24,0 ZW 26,0 1030,1 91 - -
02:34 5,4 4,0 20,0 WZW 26,0 1030,1 91 - -
02:39 5,4 4,0 18,0 ZW 26,0 1030,1 91 - -
02:44 5,4 4,0 24,0 WZW 26,0 1030,1 91 - -
02:49 5,4 4,0 23,0 WZW 23,0 1029,8 91 - -
02:54 5,4 4,0 26,0 ZW 31,0 1029,8 91 - -
02:59 5,5 4,1 23,0 WZW 31,0 1029,8 91 - -
03:04 5,5 4,1 24,0 ZW 31,0 1029,5 91 - -
03:09 5,5 4,1 27,0 WZW 31,0 1029,5 91 - -
03:14 5,6 4,2 20,0 ZW 31,0 1029,5 91 - -
03:19 5,5 4,1 24,0 ZW 31,0 1029,1 91 - -
03:24 5,5 4,3 29,0 WZW 29,0 1029,1 92 - -
03:29 5,5 4,3 18,0 WZW 29,0 1029,1 92 - -
03:34 5,4 4,4 21,0 WZW 29,0 1029,1 93 - -
03:39 5,4 4,4 16,0 WZW 29,0 1029,1 93 - -
03:44 5,3 4,4 27,0 WZW 29,0 1029,1 94 - -
03:49 5,3 4,4 29,0 WZW 29,0 1029,1 94 - -
03:54 5,3 4,6 21,0 ZW 27,0 1029,1 95 - -
03:59 5,3 4,6 26,0 WZW 29,0 1029,1 95 - -
04:04 5,2 4,5 23,0 ZW 23,0 1029,1 95 - -
04:09 5,2 4,6 24,0 ZW 24,0 1029,1 96 - -
04:14 5,2 4,6 23,0 WZW 31,0 1029,1 96 - -
04:19 5,2 4,6 23,0 ZW 23,0 1028,8 96 - -
04:24 5,1 4,7 31,0 WZW 31,0 1028,8 97 - -
04:29 5,1 4,7 21,0 ZW 27,0 1028,8 97 - -
04:34 5,1 4,7 24,0 ZW 29,0 1028,5 97 - -
04:39 5,2 4,8 31,0 WZW 31,0 1028,5 97 - -
04:44 5,2 4,8 21,0 ZW 24,0 1028,5 97 - -
04:49 5,2 4,9 20,0 WZW 23,0 1028,5 98 - -
04:54 5,2 4,9 18,0 WZW 26,0 1028,5 98 - -
04:59 5,2 4,9 21,0 WZW 26,0 1028,5 98 - -
05:04 5,3 5,0 27,0 WZW 27,0 1028,1 98 - -
05:09 5,3 5,0 20,0 WZW 26,0 1028,1 98 - -
05:14 5,3 5,0 23,0 WZW 27,0 1028,1 98 - -
05:19 5,3 5,0 24,0 WZW 31,0 1027,8 98 - -
05:24 5,3 5,2 26,0 WZW 31,0 1027,8 99 - -
05:29 5,4 5,3 26,0 WZW 26,0 1027,8 99 - -
05:34 5,4 5,3 31,0 WZW 31,0 1027,8 99 - -
05:39 5,5 5,4 32,0 WZW 32,0 1027,8 99 - -
05:44 5,5 5,4 24,0 WZW 32,0 1027,8 99 - -
05:49 5,5 5,4 26,0 WZW 26,0 1027,8 99 - -
05:54 5,5 5,4 27,0 WZW 31,0 1027,8 99 - -
05:59 5,6 5,5 26,0 WZW 26,0 1027,8 99 - -
06:04 5,6 5,5 27,0 WZW 27,0 1027,4 99 - -
06:09 5,6 5,5 24,0 WZW 27,0 1027,4 99 - -
06:14 5,6 5,5 27,0 ZW 27,0 1027,8 99 - -
06:19 5,6 5,5 27,0 WZW 29,0 1027,8 99 0,25 -
06:24 5,6 5,5 27,0 WZW 29,0 1027,8 99 0,25 -
06:29 5,7 5,6 27,0 WZW 29,0 1027,8 99 0,25 -
06:34 5,7 5,7 26,0 WZW 32,0 1027,4 100 0,25 -
06:39 5,7 5,7 35,0 WZW 35,0 1027,4 100 0,25 -
06:44 5,7 5,7 21,0 WZW 31,0 1027,4 100 0,25 -
06:49 5,7 5,7 27,0 WZW 35,0 1027,4 100 0,25 -
06:54 5,7 5,6 27,0 WZW 27,0 1027,4 99 0,25 -
06:59 5,7 5,6 26,0 WZW 34,0 1027,4 99 0,25 -
07:04 5,8 5,7 27,0 WZW 34,0 1027,4 99 0,25 -
07:09 5,8 5,7 27,0 WZW 31,0 1027,4 99 0,25 -
07:14 5,8 5,7 34,0 WZW 34,0 1027,4 99 0,25 -
07:19 5,8 5,7 26,0 ZW 29,0 1027,4 99 0,25 -
07:24 5,8 5,7 29,0 WZW 29,0 1027,4 99 - -
07:29 5,8 5,7 32,0 WZW 32,0 1027,4 99 - -
07:34 5,8 5,7 23,0 WZW 32,0 1027,4 99 - -
07:39 5,8 5,7 29,0 WZW 29,0 1027,4 99 - -
07:44 5,8 5,7 27,0 WZW 29,0 1027,4 99 - -
07:49 5,9 5,8 21,0 WZW 27,0 1027,1 99 - -
07:54 5,9 5,8 27,0 ZW 29,0 1027,1 99 - -
07:59 5,9 5,8 20,0 WZW 27,0 1027,4 99 - -

Download your copy of this data-set  here

U vindt ons ook hier:

Het Weer Aktueel

WOW Nederland KNMI

Vereniging voor Weerkunde en Klimatologie

UK Met Office Weather Observation Website (WOW)

WeatherCloud

Weather Underground

Awekas

MeteoMap.Cloud

HAMweather, WeatherForYou, PWS Weather

Citizen Weather Observer Program (CWOP)

Apparatuur in gebruik:

Hardwareleverancier
Weerhuisje

Weerstation
Vantage Pro2+ UV

Weercomputer's
alix3d2 & wl330n

Weerprogramma's
Smartbedded

Satelliet NOAA's
WRX137 & KX137

Satelliet Eumetsat
Ayecka SR1 & Triax

Bliksemdetectie
Boltek StormTracker

Webleverancier
F-Service

Weerhuisje

Vantage Pro2+ UV

alix3d2 & wl330n

Smartbedded

WRX137 & KX137

Ayecka SR1 & Triax

Boltek StormTracker

F-Service